Previsão horária em Almaraz

Hoje, 25 Janeiro, Segunda-feira

Tempo Temperatura Precipitação Vento Pressão Humidade
00:00 +10°C° 0 mm 2 m/s 731 mmHg 95%
01:00 +10°C° 0.2 mm 2 m/s 731 mmHg 96%
02:00 +10°C° 0.2 mm 3 m/s 731 mmHg 96%
03:00 +10°C° 0.2 mm 3 m/s 730 mmHg 97%
04:00 +11°C° 0.2 mm 4 m/s 730 mmHg 97%
05:00 +11°C° 0.2 mm 4 m/s 729 mmHg 96%
06:00 +11°C° 0.2 mm 4 m/s 729 mmHg 96%
07:00 +12°C° 0.5 mm 5 m/s 729 mmHg 95%
08:00 +12°C° 0.5 mm 5 m/s 729 mmHg 95%
09:00 +12°C° 0.5 mm 5 m/s 729 mmHg 94%
10:00 +13°C° 0.2 mm 6 m/s 729 mmHg 92%
11:00 +13°C° 0.2 mm 6 m/s 729 mmHg 90%
12:00 +12°C° 0.2 mm 7 m/s 729 mmHg 88%
13:00 +13°C° 0.1 mm 6 m/s 729 mmHg 88%
14:00 +13°C° 0.1 mm 6 m/s 729 mmHg 88%
15:00 +13°C° 0.1 mm 6 m/s 729 mmHg 88%
16:00 +13°C° 0 mm 6 m/s 730 mmHg 90%
17:00 +13°C° 0 mm 5 m/s 730 mmHg 92%
18:00 +12°C° 0 mm 5 m/s 731 mmHg 93%
19:00 +12°C° 0 mm 4 m/s 731 mmHg 94%
20:00 +12°C° 0 mm 4 m/s 732 mmHg 95%
21:00 +12°C° 0 mm 3 m/s 733 mmHg 96%
22:00 +12°C° 0 mm 3 m/s 733 mmHg 96%
23:00 +12°C° 0 mm 3 m/s 734 mmHg 95%

Amanhã, 26 Janeiro, Terça-feira

Tempo Temperatura Precipitação Vento Pressão Humidade
00:00 +12°C° 0 mm 3 m/s 734 mmHg 95%
01:00 +12°C° 0 mm 3 m/s 734 mmHg 95%
02:00 +12°C° 0 mm 3 m/s 734 mmHg 96%
03:00 +11°C° 0 mm 3 m/s 734 mmHg 96%
04:00 +12°C° 0.1 mm 2 m/s 734 mmHg 96%
05:00 +13°C° 0.1 mm 2 m/s 735 mmHg 97%
06:00 +13°C° 0.1 mm 2 m/s 735 mmHg 97%
07:00 +13°C° 0.1 mm 2 m/s 735 mmHg 96%
08:00 +13°C° 0.1 mm 2 m/s 736 mmHg 96%
09:00 +13°C° 0.1 mm 1 m/s 736 mmHg 96%
10:00 +13°C° 0.3 mm 1 m/s 736 mmHg 96%
11:00 +14°C° 0.3 mm 1 m/s 737 mmHg 96%
12:00 +14°C° 0.3 mm 1 m/s 737 mmHg 96%
13:00 +15°C° 0.1 mm 1 m/s 737 mmHg 95%
14:00 +15°C° 0.1 mm 2 m/s 736 mmHg 93%
15:00 +16°C° 0.1 mm 2 m/s 736 mmHg 92%
16:00 +15°C° 0 mm 2 m/s 736 mmHg 94%
17:00 +15°C° 0 mm 2 m/s 736 mmHg 95%
18:00 +14°C° 0 mm 2 m/s 737 mmHg 97%
19:00 +14°C° 0 mm 1 m/s 737 mmHg 97%
20:00 +14°C° 0 mm 1 m/s 737 mmHg 97%
21:00 +14°C° 0 mm 1 m/s 738 mmHg 97%
22:00 +14°C° 0 mm 1 m/s 738 mmHg 97%
23:00 +13°C° 0 mm 1 m/s 738 mmHg 97%

Depois de amanhã, 27 Janeiro, Quarta-feira

Tempo Temperatura Precipitação Vento Pressão Humidade
00:00 +13°C° 0 mm 1 m/s 738 mmHg 97%
01:00 +13°C° 0 mm 1 m/s 738 mmHg 97%
02:00 +13°C° 0 mm 1 m/s 738 mmHg 97%
03:00 +13°C° 0 mm 1 m/s 738 mmHg 97%
04:00 +13°C° 0 mm 1 m/s 738 mmHg 97%
05:00 +13°C° 0 mm 1 m/s 738 mmHg 97%
06:00 +13°C° 0 mm 1 m/s 738 mmHg 97%
07:00 +13°C° 0 mm 1 m/s 738 mmHg 95%
08:00 +12°C° 0 mm 0 m/s 738 mmHg 94%
09:00 +13°C° 0 mm 0 m/s 738 mmHg 93%
10:00 +15°C° 0 mm 1 m/s 739 mmHg 90%
11:00 +16°C° 0 mm 1 m/s 739 mmHg 86%
12:00 +18°C° 0 mm 1 m/s 739 mmHg 82%
13:00 +18°C° 0 mm 1 m/s 739 mmHg 80%
14:00 +19°C° 0 mm 1 m/s 739 mmHg 78%
15:00 +20°C° 0 mm 1 m/s 738 mmHg 76%
16:00 +18°C° 0 mm 1 m/s 738 mmHg 81%
17:00 +16°C° 0 mm 1 m/s 738 mmHg 87%
18:00 +15°C° 0 mm 1 m/s 739 mmHg 93%
19:00 +14°C° 0 mm 1 m/s 739 mmHg 93%
20:00 +14°C° 0 mm 1 m/s 739 mmHg 94%
21:00 +13°C° 0 mm 1 m/s 739 mmHg 94%
22:00 +13°C° 0 mm 1 m/s 739 mmHg 94%
23:00 +12°C° 0 mm 1 m/s 739 mmHg 94%

28 Janeiro, Quinta-feira

Tempo Temperatura Precipitação Vento Pressão Humidade
00:00 +12°C° 0 mm 1 m/s 739 mmHg 95%
01:00 +12°C° 0 mm 1 m/s 739 mmHg 95%
02:00 +11°C° 0 mm 0 m/s 739 mmHg 95%
03:00 +10°C° 0 mm 0 m/s 738 mmHg 95%
04:00 +10°C° 0 mm 0 m/s 738 mmHg 96%
05:00 +10°C° 0 mm 0 m/s 738 mmHg 96%
06:00 +10°C° 0 mm 0 m/s 738 mmHg 96%
07:00 +11°C° 0 mm 0 m/s 738 mmHg 94%
08:00 +12°C° 0 mm 0 m/s 738 mmHg 93%
09:00 +12°C° 0 mm 0 m/s 739 mmHg 92%
10:00 +14°C° 0 mm 0 m/s 739 mmHg 88%
11:00 +15°C° 0 mm 0 m/s 739 mmHg 85%
12:00 +16°C° 0 mm 0 m/s 739 mmHg 82%
13:00 +18°C° 0 mm 1 m/s 738 mmHg 80%
14:00 +19°C° 0 mm 1 m/s 737 mmHg 78%
15:00 +19°C° 0 mm 1 m/s 737 mmHg 76%
16:00 +16°C° 0 mm 0 m/s 737 mmHg 81%
17:00 +14°C° 0 mm 0 m/s 737 mmHg 87%
18:00 +13°C° 0 mm 0 m/s 736 mmHg 93%
19:00 +13°C° 0 mm 0 m/s 737 mmHg 92%
20:00 +12°C° 0 mm 0 m/s 737 mmHg 92%
21:00 +12°C° 0 mm 0 m/s 737 mmHg 92%
22:00 +12°C° 0 mm 0 m/s 737 mmHg 92%
23:00 +12°C° 0 mm 0 m/s 736 mmHg 92%

29 Janeiro, Sexta-feira

Tempo Temperatura Precipitação Vento Pressão Humidade
00:00 +11°C° 0 mm 0 m/s 736 mmHg 91%
01:00 +11°C° 0 mm 0 m/s 736 mmHg 91%
02:00 +11°C° 0 mm 0 m/s 735 mmHg 91%
03:00 +11°C° 0 mm 0 m/s 735 mmHg 90%
04:00 +11°C° 0 mm 0 m/s 735 mmHg 90%
05:00 +10°C° 0 mm 0 m/s 734 mmHg 90%
06:00 +10°C° 0 mm 0 m/s 734 mmHg 90%
07:00 +11°C° 0 mm 0 m/s 734 mmHg 89%
08:00 +12°C° 0 mm 0 m/s 734 mmHg 88%
09:00 +12°C° 0 mm 0 m/s 735 mmHg 87%
10:00 +15°C° 0 mm 1 m/s 735 mmHg 83%
11:00 +16°C° 0 mm 2 m/s 735 mmHg 80%
12:00 +17°C° 0 mm 3 m/s 735 mmHg 76%
13:00 +17°C° 0 mm 3 m/s 734 mmHg 76%
14:00 +18°C° 0 mm 3 m/s 734 mmHg 75%
15:00 +18°C° 0 mm 3 m/s 733 mmHg 74%
16:00 +17°C° 0 mm 3 m/s 733 mmHg 78%
17:00 +16°C° 0 mm 3 m/s 734 mmHg 82%
18:00 +14°C° 0 mm 3 m/s 734 mmHg 87%
19:00 +14°C° 0 mm 2 m/s 734 mmHg 89%
20:00 +14°C° 0 mm 2 m/s 735 mmHg 91%
21:00 +13°C° 0 mm 2 m/s 735 mmHg 93%
22:00 +12°C° 0 mm 2 m/s 735 mmHg 94%
23:00 +12°C° 0 mm 2 m/s 735 mmHg 95%

30 Janeiro, Sábado

Tempo Temperatura Precipitação Vento Pressão Humidade
00:00 +10°C° 0 mm 2 m/s 735 mmHg 96%
01:00 +10°C° 0 mm 2 m/s 735 mmHg 96%
02:00 +10°C° 0 mm 2 m/s 735 mmHg 96%
03:00 +9°C° 0 mm 2 m/s 735 mmHg 96%
04:00 +10°C° 0 mm 2 m/s 734 mmHg 96%
05:00 +10°C° 0 mm 3 m/s 734 mmHg 96%
06:00 +10°C° 0 mm 3 m/s 734 mmHg 96%
07:00 +11°C° 0 mm 3 m/s 735 mmHg 95%
08:00 +11°C° 0 mm 3 m/s 735 mmHg 94%
09:00 +11°C° 0 mm 3 m/s 735 mmHg 93%
10:00 +12°C° 0 mm 3 m/s 735 mmHg 91%
11:00 +13°C° 0 mm 4 m/s 735 mmHg 90%
12:00 +13°C° 0 mm 4 m/s 735 mmHg 88%
13:00 +13°C° 0.1 mm 4 m/s 734 mmHg 89%
14:00 +13°C° 0.1 mm 4 m/s 734 mmHg 90%
15:00 +13°C° 0.1 mm 4 m/s 733 mmHg 91%
16:00 +13°C° 0.2 mm 4 m/s 733 mmHg 92%
17:00 +13°C° 0.2 mm 4 m/s 734 mmHg 94%
18:00 +13°C° 0.2 mm 4 m/s 734 mmHg 95%
19:00 +13°C° 0 mm 4 m/s 734 mmHg 95%
20:00 +14°C° 0 mm 4 m/s 734 mmHg 95%
21:00 +14°C° 0 mm 4 m/s 735 mmHg 95%
22:00 +13°C° 0 mm 4 m/s 735 mmHg 95%
23:00 +13°C° 0 mm 4 m/s 735 mmHg 96%
Mostrar mais

Necessitamos do seu Consentimento

A Meteoprog e os seus Fornecedores de Serviços podem armazenar e aceder a dados pessoais como cookies, identificadores do dispositivo ou outras tecnologias semelhantes existentes no seu dispositivo e processar estes dados para personalizar conteúdos e anúncios, assim como funcionalidades nas redes sociais e análise de tráfego.

  • Armazenar e/ou aceder a informações no seu dispositivo

    Os cookies, identificadores do dispositivo ou outras informações podem ser armazenados ou acedidos no seu dispositivo, para os fins acima indicados.

  • Anúncios e conteúdos personalizados, medição de anúncios e conteúdos, dados sobre o público-alvo e desenvolvimento de produtos

    Os anúncios e os conteúdos podem ser personalizados com base num perfil. Podem ser adicionados dados adicionais para uma maior personalização dos anúncios e dos conteúdos. A eficácia dos anúncios e dos conteúdos pode ser medida. Podem ser obtidas informações sobre o público que visualizou os anúncios e os conteúdos. Estes dados podem ser usados para desenvolver ou melhorar sistemas, softwares ou a experiência do utilizador.

Ao clicar em "Eu concordo”, permitirá o uso de cookies, identificadores do dispositivo e web beacons mencionados ou outras tecnologias semelhantes. As configurações do navegador do seu dispositivo podem ser alteradas.

Para certos fins, podem ser invocados interesses legítimos ao invés de consentimento. Pode ler mais informação sobre este assunto na nossa Política de Privacidade e Cookies.